Home > Weather > Greenville > Past weeks

Flag for USA Past Weather in Greenville, South Carolina, USA — Yesterday and Last 2 Weeks

Now
85 °F

Sunny.


Feels Like: 88 °F
Forecast: 69 / 93 °F
Wind: 5 mph from Southeast

Location: Greenville Downtown Airport

Current Time: Jul 1, 2016 at 10:03:06 PM

Latest Report: Jul 1, 2016 at 8:53 PM


Visibility: 10 mi

Pressure: 29.95 "Hg

Humidity: 55%

Dew Point: 67 °F

Location of GreenvilleLocation

Past Weather in Greenville — Graph

°F

Greenville Temperature Yesterday

Maximum temperature yesterday: 86 °F (at 3:53 PM)
Minimum temperature yesterday: 70 °F (at 4:53 AM)
Average temperature yesterday: 77 °F

High & Low Weather Summary for the Past Weeks

 TemperatureHumidityPressure
High96 °F (Jun 22, 4:53 PM)94% (Jun 27, 11:53 PM)30.39 "Hg (Jun 27, 11:53 PM)
Low62 °F (Jun 19, 5:53 AM)25% (Jun 21, 1:53 PM)29.73 "Hg (Jun 17, 3:53 AM)
Average81 °F56%30.04 "Hg
* Reported Jun 16 8:53 PM — Jul 1 8:53 PM, Greenville, Weather by CustomWeather, © 2016

Note: Actual official high and low records may vary slightly from our data, if they occured in-between our weather recording intervals... More about our weather records

Advertising

Greenville Weather History for the Previous 24 Hours

Scroll right to see more
 ConditionsComfort  
Time TempWeatherWind HumidityBarometerVisibility
8:53 PM
Fri, Jul 1
85 °FSunny.5 mph55%29.95 "Hg10 mi
7:53 PM87 °FSunny.9 mph50%29.94 "Hg10 mi
6:53 PM89 °FSunny.9 mph46%29.94 "Hg10 mi
5:53 PM90 °FSunny.7 mph45%29.93 "Hg10 mi
4:53 PM89 °FSunny.6 mph50%29.93 "Hg10 mi
4:02 PM88 °FPartly sunny.12 mph48%29.97 "Hg10 mi
3:53 PM88 °FThundershowers. Scattered clouds.8 mph45%29.94 "Hg10 mi
2:53 PM89 °FSunny.7 mph50%29.96 "Hg10 mi
1:53 PM88 °FPassing clouds.3 mph50%29.97 "Hg10 mi
12:53 PM86 °FScattered clouds.9 mph57%29.98 "Hg10 mi
11:53 AM85 °FSunny.No wind59%29.99 "Hg10 mi
10:53 AM82 °FPassing clouds.8 mph65%30.00 "Hg10 mi
9:53 AM79 °FPartly sunny.6 mph72%30.01 "Hg10 mi
8:53 AM76 °FPartly sunny.9 mph82%30.00 "Hg10 mi
7:53 AM74 °FPassing clouds.8 mph85%29.99 "Hg10 mi
6:53 AM73 °FOvercast.8 mph84%29.99 "Hg10 mi
5:53 AM72 °FOvercast.6 mph87%29.99 "Hg10 mi
4:53 AM71 °FPassing clouds.6 mph87%29.99 "Hg10 mi
3:53 AM72 °FClear.6 mph84%29.97 "Hg10 mi
2:53 AM73 °FPassing clouds.6 mph81%29.98 "Hg10 mi
1:53 AM74 °FPassing clouds.3 mph76%29.98 "Hg10 mi
12:53 AM74 °FClear.5 mph76%30.01 "Hg10 mi
11:53 PM
Thu, Jun 30
75 °FClear.6 mph74%30.01 "Hg10 mi
10:53 PM76 °FClear.8 mph74%30.00 "Hg10 mi
Weather by CustomWeather, © 2016

See weather overviewHow to use our weather pages